Home > Weather > Oranienburg > Past weeks

Flag for Germany Weather for the Past 2 Weeks in Oranienburg, Brandenburg, Germany

Now
48 °F

Passing clouds.


Feels Like: 45 °F
Forecast: 45 / 62 °F
Wind: 8 mph from South

Location: Berlin-Tegel

Current Time: Apr 29, 2016 at 10:33:54 AM

Latest Report: Apr 29, 2016 at 9:20 AM


Visibility: N/A

Pressure: 30.07 "Hg

Humidity: 58%

Dew Point: 34 °F

Location of OranienburgLocation

Historic Weather in Oranienburg — Graph

°F

Oranienburg Temperature Yesterday

Maximum temperature yesterday: 50 °F (at 3:20 PM)
Minimum temperature yesterday: 37 °F (at 4:20 AM)
Average temperature yesterday: 42 °F

High & Low Weather Summary for the Past Weeks

 TemperatureHumidityPressure
High59 °F (Apr 19, 3:20 PM)100% (Apr 15, 2:50 AM)30.36 "Hg (Apr 15, 2:50 AM)
Low32 °F (Apr 29, 5:50 AM)30% (Apr 25, 5:20 PM)29.45 "Hg (Apr 26, 5:50 AM)
Average46 °F67%29.87 "Hg
* Reported Apr 14 9:20 AM — Apr 29 9:20 AM, Oranienburg, Weather by CustomWeather, © 2016

Note: Actual official high and low records may vary slightly from our data, if they occured in-between our weather recording intervals... More about our weather records

Advertising

Oranienburg Weather History for the Previous 24 Hours

Scroll right to see more
 ConditionsComfort  
Time TempWeatherWind HumidityBarometerVisibility
9:20 AM
Fri, Apr 29
48 °FPassing clouds.8 mph58%30.07 "HgN/A
8:50 AM46 °FSunny.9 mph62%30.07 "Hg10 mi
8:20 AM43 °FSunny.9 mph71%30.07 "Hg10 mi
7:50 AM41 °FSunny.9 mph70%30.07 "Hg10 mi
7:20 AM39 °FPassing clouds.6 mph75%30.07 "HgN/A
6:50 AM37 °FSunny.6 mph81%30.07 "Hg10 mi
6:20 AM34 °FPassing clouds.3 mph87%30.07 "HgN/A
5:50 AM32 °FClear.6 mph93%30.04 "Hg10 mi
5:20 AM34 °FClear.3 mph93%30.04 "Hg10 mi
4:20 AM34 °FFog.2 mph93%30.04 "HgN/A
3:50 AM34 °FFog.1 mph87%30.04 "HgN/A
3:20 AM36 °FFog.No wind87%30.04 "HgN/A
2:50 AM34 °FFog.1 mph93%30.04 "HgN/A
2:20 AM36 °FFog.1 mph87%30.04 "HgN/A
1:50 AM37 °FFog.1 mph81%30.04 "HgN/A
1:20 AM37 °FFog.2 mph87%30.04 "HgN/A
12:20 AM37 °FFog.3 mph87%30.01 "HgN/A
11:50 PM
Thu, Apr 28
39 °FFog.2 mph81%30.01 "HgN/A
11:20 PM39 °FFog.2 mph87%30.01 "HgN/A
10:50 PM41 °FClear.2 mph81%30.01 "Hg10 mi
10:20 PM41 °FPassing clouds.5 mph81%30.01 "HgN/A
9:50 PM41 °FFog.3 mph81%30.01 "HgN/A
9:20 PM41 °FFog.2 mph76%29.98 "HgN/A
8:50 PM41 °FScattered clouds.1 mph81%29.98 "HgN/A
8:20 PM41 °FScattered clouds.6 mph81%29.98 "HgN/A
7:50 PM43 °FSprinkles. Partly sunny.5 mph81%29.98 "HgN/A
7:20 PM43 °FSprinkles. Partly sunny.3 mph81%29.95 "HgN/A
6:50 PM41 °FSprinkles. Scattered clouds.3 mph87%29.95 "HgN/A
6:20 PM41 °FSprinkles. Partly sunny.15 mph76%29.98 "HgN/A
5:50 PM45 °FScattered showers. Partly sunny.16 mph66%29.95 "HgN/A
5:20 PM46 °FPartly sunny.23 mph62%29.92 "HgN/A
4:50 PM48 °FScattered clouds.15 mph58%29.92 "HgN/A
4:20 PM50 °FScattered showers. Scattered clouds.18 mph54%29.92 "HgN/A
3:50 PM48 °FScattered showers. Scattered clouds.14 mph62%29.89 "HgN/A
3:20 PM50 °FScattered showers. Scattered clouds.22 mph58%29.89 "HgN/A
2:20 PM46 °FScattered showers. Partly sunny.9 mph76%29.89 "HgN/A
1:50 PM46 °FScattered showers. Scattered clouds.15 mph66%29.89 "HgN/A
1:20 PM41 °FSprinkles. Partly sunny.14 mph81%29.89 "HgN/A
12:50 PM46 °FScattered showers. Scattered clouds.14 mph71%29.89 "HgN/A
12:20 PM45 °FSprinkles. Broken clouds.14 mph61%29.89 "HgN/A
11:50 AM46 °FBroken clouds.16 mph62%29.86 "HgN/A
11:20 AM43 °FSprinkles. Partly sunny.16 mph71%29.86 "HgN/A
10:20 AM45 °FPartly sunny.18 mph66%29.86 "HgN/A
Weather by CustomWeather, © 2016

See weather overviewHow to use our weather pages